Temp
51 51 52 52 52 52 52 52 52 52 52 52 52 53 53 53 54 54 54 58 49 45 51 55 57 50 52 45 37 41 40 46 45 38 39 36 34 41 40 38 36 37 37 38 42 38 31 49 53 46 48 54 61 66
51 51 51 52 52 52 52 51 52 52 52 52 52 53 53 53 54 54 49 60 55 46 49 57 58 62 60 55 44 41 38 41 43 37 42 39 35 37 38 33 44 36 38 35 38 36 44 47 49 55 58 60 61 65
51 51 51 51 51 51 51 51 51 52 52 52 52 52 53 53 54 53 52 56 51 47 55 60 57 65 66 62 61 41 42 44 43 47 41 41 34 39 34 35 36 41 45 39 39 42 44 47 53 57 61 61 64 67
51 51 51 51 51 51 51 51 51 52 52 52 52 52 53 53 53 52 51 59 52 48 42 56 70 60 69 65 59 56 51 49 47 47 42 42 39 49 38 41 42 43 48 42 40 46 47 48 51 56 60 64 65 68
50 50 51 51 51 51 51 51 51 51 52 52 53 53 53 53 52 54 57 61 59 49 43 51 60 67 69 64 58 55 51 45 44 47 43 43 54 53 48 41 41 47 45 40 39 49 49 51 57 61 61 63 65 66
50 50 50 51 51 51 51 51 51 51 52 53 53 53 52 52 52 56 51 63 65 56 45 43 64 64 65 65 60 53 53 48 49 48 46 51 58 54 40 36 47 51 53 53 49 56 57 58 60 61 61 63 67 67
50 50 50 50 50 51 51 51 51 51 52 52 52 52 51 51 53 56 53 54 59 60 46 44 53 63 63 63 61 59 57 54 53 50 49 52 53 53 46 40 48 50 51 52 55 54 54 57 56 61 64 66 67 70
49 50 50 50 50 50 51 51 51 51 51 51 51 51 51 52 52 54 61 56 60 56 50 40 47 56 65 58 54 63 55 54 55 53 57 52 55 55 44 49 52 49 48 51 53 56 56 59 61 62 66 67 65 66
49 49 49 49 50 50 50 51 51 51 51 51 51 51 55 55 54 53 55 54 62 55 43 45 42 39 63 57 59 59 60 50 61 51 54 54 47 43 47 50 47 53 48 46 51 55 55 56 61 61 62 63 63 65
49 49 49 49 50 50 50 51 51 51 51 51 54 57 50 53 53 54 51 48 45 46 47 47 56 50 61 57 54 52 57 51 42 51 59 48 45 53 56 55 56 51 48 53 47 48 52 51 55 57 59 63 64 66
48 48 49 49 50 50 50 50 50 50 52 60 54 53 60 57 61 56 49 43 46 43 51 56 57 53 62 50 48 54 49 54 45 49 51 46 44 52 59 60 61 59 57 55 51 52 54 56 55 57 58 61 63 63
47 48 48 48 49 49 50 50 50 51 54 49 48 52 57 51 50 47 44 51 49 48 55 57 52 56 59 58 49 50 45 51 44 57 50 42 50 58 59 60 61 62 62 59 58 51 54 56 54 57 57 57 58 62
47 48 48 48 48 49 49 50 50 50 50 50 45 42 42 47 37 41 41 50 51 58 61 61 55 58 58 57 47 46 40 40 52 45 44 47 56 59 59 62 62 64 64 63 61 59 57 57 56 56 56 58 59 60
47 47 48 48 48 49 50 50 50 51 49 46 42 35 42 43 49 50 53 57 63 63 63 63 60 56 59 52 51 40 49 48 39 38 41 50 54 59 60 63 61 61 62 62 63 59 57 57 54 58 58 57 55 55
47 47 48 48 49 50 50 50 49 51 50 48 49 38 46 55 61 63 65 63 66 66 63 60 60 59 52 49 51 47 41 36 39 38 47 54 59 58 57 58 61 61 62 61 63 62 61 57 57 58 57 58 58 57
47 47 49 50 49 49 49 52 54 52 48 51 51 49 57 57 60 62 63 61 67 65 65 61 55 51 48 50 45 42 38 34 38 48 56 57 60 58 57 61 61 63 62 62 63 63 61 60 59 55 57 58 58 57
46 48 50 49 48 48 51 50 54 48 50 48 50 58 57 57 56 61 63 63 69 63 55 55 45 46 54 45 42 44 37 42 52 57 61 59 60 60 59 61 63 60 62 62 63 63 62 62 61 59 53 56 58 59
48 53 49 48 48 48 51 49 51 52 43 49 48 54 58 61 60 62 65 67 64 62 60 54 58 49 43 41 43 46 51 57 60 61 62 62 63 63 63 61 64 62 61 61 63 63 61 60 57 54 54 57 58 59
48 49 47 46 46 43 43 48 49 42 49 55 59 61 61 62 65 67 66 67 67 67 62 58 52 49 51 57 56 58 58 59 57 56 57 64 64 63 64 65 64 62 62 62 63 64 61 59 59 58 58 57 56 57
46 47 47 47 47 43 40 46 54 46 47 56 59 58 60 61 65 65 65 65 63 60 55 53 54 58 59 62 64 63 64 63 61 57 60 62 61 61 63 64 62 64 64 65 64 55 63 61 62 61 59 55 56 55
48 49 51 50 48 46 47 48 48 51 53 52 57 58 58 62 60 60 61 65 59 55 52 58 61 64 67 67 69 67 66 66 63 63 61 61 57 61 52 63 65 65 64 63 63 62 58 59 61 61 60 59 58 56
50 50 50 51 45 46 44 50 48 54 52 52 53 55 53 51 54 58 63 59 58 59 63 63 64 64 65 65 67 67 67 68 68 65 55 55 61 61 60 62 59 61 62 62 63 62 61 61 63 64 61 59 56 52
48 47 45 45 41 39 38 52 44 48 44 49 53 50 51 53 58 64 56 60 62 67 68 67 67 67 65 67 68 68 68 67 66 66 66 65 66 65 64 62 62 63 62 61 64 63 61 47 57 61 62 60 56 56
47 39 37 38 39 35 46 43 46 44 47 45 44 44 49 52 59 54 51 57 63 67 67 64 63 61 64 66 65 66 67 68 67 67 67 62 63 63 64 60 58 65 66 66 64 62 62 60 51 60 60 58 56 54
33 33 36 31 41 36 37 40 42 42 40 44 43 45 48 54 48 49 50 56 62 62 63 64 64 63 62 64 65 66 69 69 65 63 66 66 63 57 59 58 61 67 67 65 62 61 60 60 60 59 56 54 53 51
27 36 33 38 38 37 38 36 40 42 44 43 45 50 51 47 44 44 52 58 57 61 61 59 59 61 63 64 61 62 65 69 67 64 65 67 63 59 58 56 58 62 67 66 64 61 60 60 58 57 51 49 39 50
27 31 41 49 45 44 40 42 44 41 39 38 43 44 42 36 40 49 50 44 46 58 64 64 64 64 62 63 64 66 67 67 65 63 65 67 66 63 62 62 61 62 66 66 64 63 61 59 57 58 57 56 53 51
36 40 34 40 41 43 37 37 38 37 39 45 45 40 35 34 34 42 46 45 44 48 49 60 65 65 64 64 65 66 67 67 67 66 66 63 66 64 67 66 63 42 64 64 63 63 62 61 59 57 56 55 53 52
37 41 41 35 37 38 39 38 40 45 49 47 40 39 40 47 48 49 47 48 47 46 49 52 59 62 63 64 64 65 65 64 58 54 55 53 53 59 66 63 63 64 62 56 34 47 55 58 59 58 57 55 54 52
38 44 36 34 33 33 40 46 46 50 52 53 53 52 51 51 47 49 49 51 51 51 54 56 56 54 53 54 55 55 61 51 49 48 46 55 56 63 65 64 63 64 63 60 58 53 35 50 46 56 55 54 50 47
43 41 36 37 37 43 46 49 51 51 51 50 53 50 49 47 43 42 40 43 45 45 45 44 41 39 41 40 45 48 46 45 48 45 45 52 54 58 61 60 60 58 62 61 59 57 55 54 56 53 51 48 47 46
39 37 36 33 36 44 46 43 42 42 45 48 47 51 51 50 34 34 37 38 37 34 34 36 36 36 37 37 41 45 37 40 43 42 43 45 46 50 59 58 53 50 49 59 58 56 55 52 49 49 48 47 47 46
39 40 40 38 37 38 43 39 39 40 42 41 45 45 35 33 29 33 39 38 35 34 34 36 37 38 37 37 38 39 38 40 37 33 33 33 34 38 52 55 54 54 54 54 53 53 51 49 49 48 47 45 44 42
MSLP
1027.95 1027.62 1027.19 1026.78 1026.33 1025.86 1025.42 1024.99 1024.43 1023.87 1023.41 1022.93 1022.47 1022.01 1021.51 1021.10 1020.71 1020.32 1019.02 1018.21 1018.27 1017.09 1015.09 1013.98 1013.14 1012.70 1012.12 1012.69 1012.91 1012.73 1012.36 1010.78 1009.87 1009.37 1008.61 1008.48 1007.88 1006.56 1005.79 1005.65 1004.99 1004.27 1003.39 1003.07 1003.26 1003.31 1003.86 1002.61 1000.23 999.04 1000.29 998.87 997.12 996.04
1027.37 1027.02 1026.61 1026.21 1025.86 1025.41 1024.88 1024.40 1023.90 1023.41 1022.89 1022.38 1021.90 1021.44 1021.04 1020.59 1020.23 1020.02 1018.85 1017.16 1017.23 1017.31 1015.01 1013.65 1012.73 1012.13 1011.80 1011.95 1013.01 1013.52 1013.52 1012.92 1012.11 1011.46 1010.20 1009.75 1009.05 1008.25 1007.41 1006.73 1006.28 1006.22 1006.46 1005.94 1005.24 1005.21 1004.90 1004.36 1003.36 1001.79 1000.62 999.09 998.36 997.48
1026.71 1026.37 1026.01 1025.60 1025.21 1024.79 1024.31 1023.80 1023.33 1022.78 1022.28 1021.79 1021.31 1020.84 1020.31 1019.91 1019.61 1019.54 1018.57 1017.68 1017.64 1016.73 1013.53 1010.72 1010.33 1010.09 1010.82 1011.18 1012.11 1013.11 1013.39 1013.28 1012.84 1012.46 1011.47 1010.19 1009.42 1008.70 1007.95 1007.82 1007.48 1007.27 1006.70 1006.42 1006.20 1006.20 1005.50 1005.18 1003.75 1002.37 1001.10 1000.33 999.57 998.42
1026.12 1025.73 1025.36 1025.01 1024.62 1024.19 1023.73 1023.22 1022.69 1022.12 1021.59 1021.15 1020.65 1020.17 1019.65 1019.20 1018.94 1018.81 1018.06 1016.94 1016.84 1016.49 1014.60 1010.60 1009.24 1009.89 1009.93 1010.78 1011.63 1012.20 1012.53 1013.01 1012.97 1012.38 1011.18 1009.64 1008.37 1007.77 1007.96 1007.95 1007.47 1007.50 1007.18 1007.06 1006.78 1006.04 1005.67 1004.85 1003.84 1002.83 1001.48 1000.66 999.98 999.16
1025.56 1025.12 1024.72 1024.38 1023.98 1023.54 1023.10 1022.66 1022.10 1021.54 1020.94 1020.40 1019.92 1019.45 1019.02 1018.54 1018.10 1017.65 1016.77 1015.93 1016.06 1016.33 1014.42 1011.83 1010.28 1008.87 1009.19 1009.79 1010.72 1011.60 1012.04 1012.36 1012.08 1010.82 1009.93 1008.57 1006.47 1006.33 1007.17 1008.25 1007.97 1007.74 1007.42 1007.06 1006.40 1005.84 1005.45 1004.75 1004.07 1003.17 1002.12 1001.30 1000.75 1000.18
1025.09 1024.67 1024.23 1023.81 1023.36 1022.90 1022.41 1021.98 1021.46 1020.88 1020.27 1019.65 1019.09 1018.62 1018.20 1017.85 1017.39 1016.52 1015.19 1014.10 1014.74 1015.54 1015.13 1012.57 1009.18 1008.18 1008.44 1008.83 1009.52 1010.50 1010.87 1011.35 1010.96 1010.03 1009.02 1007.69 1006.43 1006.29 1006.88 1007.61 1007.85 1007.64 1007.44 1007.40 1006.73 1005.71 1004.73 1004.10 1003.75 1003.35 1002.50 1001.65 1000.86 1000.49
1024.71 1024.18 1023.66 1023.26 1022.84 1022.33 1021.79 1021.31 1020.74 1020.08 1019.50 1018.90 1018.24 1017.83 1017.28 1016.85 1016.71 1015.25 1014.93 1014.89 1014.35 1015.04 1015.07 1012.76 1009.04 1007.87 1008.00 1008.20 1008.33 1008.74 1009.33 1009.53 1009.36 1008.83 1007.80 1006.88 1006.41 1006.30 1006.92 1007.39 1007.44 1007.74 1007.38 1007.31 1006.79 1006.32 1004.83 1004.07 1003.90 1003.26 1002.26 1001.37 1000.52 1000.03
1024.16 1023.69 1023.23 1022.73 1022.29 1021.84 1021.27 1020.73 1020.12 1019.34 1018.70 1017.99 1017.31 1017.10 1016.54 1015.91 1015.73 1015.23 1014.54 1014.73 1014.39 1014.39 1014.38 1012.89 1009.76 1007.53 1007.53 1007.34 1007.54 1007.61 1007.88 1008.08 1007.90 1007.36 1006.47 1006.24 1006.12 1006.01 1006.96 1007.63 1007.55 1007.42 1007.11 1006.73 1006.37 1005.91 1005.17 1004.60 1003.50 1002.33 1001.78 1001.34 1000.63 1000.02
1023.63 1023.20 1022.76 1022.32 1021.85 1021.41 1020.78 1020.24 1019.58 1018.81 1017.93 1016.80 1016.37 1016.08 1015.90 1015.33 1014.22 1014.59 1014.91 1014.92 1014.36 1014.51 1013.53 1012.00 1009.71 1007.95 1007.18 1007.28 1007.38 1007.05 1007.02 1006.63 1006.28 1006.19 1005.77 1006.21 1006.37 1006.45 1007.10 1007.23 1007.49 1007.21 1007.53 1006.95 1006.23 1005.44 1005.03 1004.13 1002.97 1002.50 1002.20 1001.74 1001.02 1000.37
1023.15 1022.71 1022.30 1021.83 1021.36 1020.83 1020.26 1019.74 1019.06 1018.37 1017.12 1015.70 1015.40 1014.45 1013.97 1014.21 1014.38 1014.80 1015.08 1014.60 1014.53 1014.02 1013.14 1010.50 1008.62 1007.03 1006.58 1006.71 1007.15 1007.25 1006.30 1005.99 1006.01 1005.48 1005.03 1005.89 1006.25 1006.50 1006.32 1006.61 1006.83 1007.27 1007.37 1007.09 1006.73 1005.98 1005.35 1004.68 1004.09 1003.51 1002.79 1002.09 1001.44 1000.77
1022.77 1022.31 1021.83 1021.39 1020.90 1020.38 1019.87 1019.37 1018.77 1018.21 1016.46 1015.23 1014.76 1014.20 1014.11 1014.00 1013.50 1012.85 1012.63 1012.79 1012.09 1011.41 1010.21 1008.03 1007.12 1006.34 1006.52 1007.01 1007.69 1007.66 1006.83 1005.53 1004.97 1004.68 1004.25 1005.11 1005.56 1005.86 1005.70 1005.55 1005.68 1006.21 1006.50 1006.51 1006.68 1006.38 1005.75 1005.10 1004.49 1003.79 1003.31 1002.76 1002.16 1001.64
1022.39 1021.94 1021.39 1020.99 1020.53 1020.04 1019.52 1018.99 1018.38 1017.96 1016.80 1017.51 1017.45 1016.34 1014.81 1013.61 1012.51 1011.55 1010.85 1009.58 1008.88 1007.26 1006.67 1005.40 1006.40 1006.61 1006.42 1007.61 1008.19 1008.09 1007.47 1006.35 1004.88 1004.56 1004.07 1004.62 1005.17 1005.39 1005.36 1005.05 1005.13 1005.17 1005.25 1005.57 1005.92 1005.89 1005.60 1005.43 1005.13 1004.41 1003.89 1003.58 1003.09 1002.31
1021.98 1021.46 1020.96 1020.50 1020.08 1019.62 1019.14 1018.81 1018.42 1018.13 1017.46 1016.82 1016.65 1015.73 1014.42 1012.49 1011.31 1009.49 1008.00 1006.11 1005.20 1004.67 1004.36 1004.37 1005.07 1005.78 1006.60 1007.44 1008.34 1008.32 1007.88 1006.97 1006.22 1005.26 1004.41 1004.71 1004.69 1004.95 1005.02 1004.71 1004.73 1004.72 1004.75 1004.72 1004.93 1005.28 1005.53 1005.32 1005.26 1004.89 1004.47 1004.12 1003.75 1003.13
1021.53 1021.00 1020.48 1019.94 1019.50 1018.87 1018.47 1018.51 1018.21 1017.68 1017.05 1015.37 1014.40 1013.45 1011.90 1009.64 1007.82 1006.45 1005.28 1004.10 1003.47 1003.51 1003.54 1003.63 1004.30 1005.20 1005.67 1006.50 1007.38 1007.88 1007.18 1006.91 1006.49 1005.54 1004.71 1004.81 1004.86 1004.71 1004.69 1004.53 1004.65 1004.61 1004.70 1004.69 1004.49 1004.97 1005.30 1005.17 1005.39 1005.01 1004.90 1004.75 1004.45 1004.09
1021.08 1020.34 1019.87 1019.41 1018.92 1018.70 1018.41 1018.21 1017.96 1017.67 1016.24 1013.84 1012.27 1010.86 1008.57 1006.99 1005.43 1004.30 1003.83 1003.38 1002.98 1003.30 1003.66 1003.74 1004.09 1004.84 1005.58 1006.27 1006.77 1007.19 1007.16 1006.98 1006.47 1005.70 1004.99 1004.63 1004.28 1004.49 1004.82 1004.97 1004.75 1004.69 1004.73 1004.69 1004.50 1004.46 1004.69 1005.25 1005.22 1005.11 1005.12 1004.98 1004.81 1004.63
1020.75 1019.78 1019.08 1019.01 1018.74 1018.33 1017.87 1017.17 1016.46 1016.41 1015.22 1012.59 1010.58 1008.29 1006.58 1005.26 1003.94 1003.30 1002.90 1002.68 1002.74 1002.94 1003.37 1003.79 1003.95 1004.36 1005.13 1005.48 1006.07 1006.40 1006.73 1006.75 1006.17 1005.39 1004.65 1004.41 1004.21 1004.36 1004.62 1004.52 1004.63 1004.75 1004.77 1004.81 1004.57 1004.51 1004.96 1005.06 1005.20 1005.55 1005.44 1005.22 1005.02 1004.98
1020.52 1019.40 1018.83 1018.62 1018.27 1017.80 1017.13 1016.90 1015.00 1014.41 1012.78 1010.79 1008.34 1007.13 1006.34 1005.21 1004.25 1002.94 1002.52 1002.30 1002.19 1002.50 1002.78 1003.59 1004.26 1004.05 1004.22 1004.86 1005.20 1005.75 1006.13 1005.62 1005.00 1004.30 1003.79 1004.14 1004.05 1004.12 1004.44 1004.49 1004.35 1004.79 1004.72 1004.80 1004.72 1004.45 1004.65 1005.10 1005.28 1005.57 1005.70 1005.37 1005.13 1005.01
1019.86 1018.75 1018.74 1018.68 1018.52 1017.62 1016.33 1015.96 1013.93 1011.80 1010.94 1009.32 1007.80 1006.20 1005.30 1004.31 1003.19 1002.48 1002.00 1002.01 1002.10 1002.06 1002.30 1002.74 1003.22 1003.14 1003.65 1003.73 1003.98 1004.34 1004.31 1004.27 1003.93 1003.56 1003.21 1003.65 1003.75 1003.85 1003.99 1004.27 1004.13 1004.60 1004.70 1004.77 1004.65 1004.49 1004.77 1005.26 1005.70 1006.13 1006.16 1006.10 1005.75 1005.36
1019.77 1019.40 1018.99 1018.67 1018.72 1018.11 1016.23 1014.28 1013.73 1011.41 1008.79 1007.29 1005.89 1005.00 1004.14 1003.31 1002.59 1002.01 1001.71 1001.83 1001.96 1001.99 1002.26 1002.31 1002.33 1002.14 1002.08 1002.00 1001.97 1002.34 1002.91 1002.99 1003.16 1003.53 1003.85 1003.09 1003.30 1003.70 1003.70 1003.86 1004.11 1004.37 1004.47 1004.44 1004.23 1004.19 1004.77 1005.39 1005.77 1006.15 1006.32 1006.50 1006.20 1006.15
1019.35 1018.60 1017.96 1017.78 1018.01 1017.01 1015.62 1013.37 1011.95 1010.50 1008.02 1006.07 1005.30 1004.23 1003.42 1002.64 1001.87 1001.39 1001.23 1001.35 1001.53 1001.87 1002.01 1001.91 1001.65 1001.41 1001.16 1000.93 1001.06 1001.37 1001.14 1001.69 1001.93 1002.55 1002.58 1002.91 1003.52 1003.86 1003.65 1003.80 1004.30 1004.18 1004.19 1004.04 1004.11 1004.50 1004.50 1004.96 1005.14 1005.64 1006.28 1006.94 1006.81 1006.76
1018.22 1017.80 1017.13 1017.04 1016.60 1016.26 1014.56 1012.35 1010.59 1008.81 1007.34 1005.94 1004.92 1004.14 1003.04 1002.24 1001.63 1001.00 1000.62 1000.77 1000.97 1001.34 1001.41 1001.43 1001.01 1000.68 1000.61 1000.41 1000.39 1000.56 1000.74 1000.88 1001.35 1001.53 1002.00 1002.28 1003.34 1003.49 1004.60 1003.82 1003.91 1003.84 1003.85 1003.91 1003.92 1003.96 1004.58 1005.17 1005.42 1005.52 1005.88 1006.40 1006.77 1007.52
1017.65 1017.29 1016.90 1016.34 1015.61 1014.54 1013.28 1011.87 1010.23 1008.25 1007.25 1005.83 1005.12 1004.36 1003.42 1002.72 1001.92 1001.12 1000.59 1000.03 999.61 999.67 999.76 999.66 999.62 999.89 1000.05 999.90 999.75 999.93 1000.12 1000.28 1000.39 1001.10 1001.85 1002.66 1002.62 1002.90 1003.44 1003.56 1003.92 1004.04 1004.10 1004.14 1004.12 1004.25 1004.91 1005.33 1005.52 1005.44 1005.91 1006.53 1007.24 1007.95
1017.20 1016.88 1016.56 1015.86 1014.59 1013.34 1011.68 1010.35 1009.54 1008.25 1006.85 1004.90 1004.05 1003.41 1002.47 1001.64 1000.88 1000.29 999.86 999.37 998.93 998.66 998.43 998.57 998.74 999.14 999.33 999.51 999.61 999.54 999.70 999.88 1000.00 1000.20 1000.85 1001.46 1001.57 1001.97 1002.69 1003.32 1003.48 1003.29 1003.54 1004.29 1004.32 1004.59 1005.09 1005.95 1005.87 1005.75 1006.06 1006.71 1007.57 1007.78
1016.48 1016.73 1015.34 1013.94 1013.05 1011.80 1010.50 1008.88 1008.45 1007.72 1006.31 1005.21 1004.38 1003.35 1002.53 1001.71 1001.01 1000.19 999.52 999.21 998.72 998.39 998.12 998.22 999.04 999.55 999.41 999.05 999.06 999.04 999.10 999.26 999.49 999.80 1000.26 1001.18 1001.39 1002.15 1002.53 1003.09 1003.35 1003.31 1003.09 1003.47 1004.10 1004.74 1005.20 1005.89 1006.17 1006.21 1006.49 1007.10 1007.68 1008.11
1016.69 1015.15 1014.02 1012.57 1011.66 1010.97 1009.63 1008.29 1007.43 1006.87 1005.79 1005.04 1004.17 1003.17 1002.44 1001.84 1001.01 1000.20 999.62 999.04 998.55 998.29 998.58 999.05 998.96 999.01 998.90 998.67 998.59 998.62 998.73 998.79 999.36 999.76 1000.05 1000.54 1001.71 1002.19 1003.25 1003.45 1003.28 1002.78 1003.23 1003.56 1004.13 1004.69 1005.30 1005.76 1006.13 1006.40 1007.10 1008.00 1008.28 1008.70
1014.90 1013.12 1012.25 1010.62 1009.88 1009.44 1008.69 1007.62 1006.72 1005.60 1004.76 1004.09 1003.39 1002.83 1002.48 1002.10 1001.59 1000.83 1000.28 999.89 999.78 998.68 999.34 999.45 999.36 999.27 998.98 998.98 999.26 999.20 998.93 998.95 999.34 999.58 999.95 1000.33 1001.27 1001.85 1002.57 1002.73 1002.86 1002.84 1003.22 1003.62 1003.95 1004.63 1005.10 1005.63 1006.16 1006.60 1007.54 1008.37 1008.90 1008.92
1013.40 1012.02 1010.57 1009.74 1008.98 1008.45 1008.05 1007.37 1006.84 1006.21 1005.26 1004.42 1003.27 1002.83 1002.72 1002.50 1002.01 1001.30 1002.57 1003.21 1002.94 1001.61 1000.22 999.76 1000.01 999.74 999.56 999.44 999.78 999.80 999.76 999.82 999.91 1000.10 1000.51 1000.63 1000.89 1001.61 1001.71 1001.54 1001.73 1002.70 1003.25 1003.67 1004.25 1004.65 1004.96 1005.62 1006.15 1006.55 1006.92 1007.58 1008.40 1009.04
1011.51 1010.60 1009.88 1009.29 1008.51 1008.09 1007.60 1007.26 1006.60 1005.90 1005.39 1004.62 1003.78 1003.30 1003.75 1004.18 1004.69 1004.58 1004.57 1005.05 1004.61 1004.01 1002.95 1001.62 1000.59 1000.22 1000.16 1000.11 1000.31 1000.16 1000.02 1000.06 1000.13 1000.27 1000.47 1001.14 1001.06 1001.37 1001.76 1001.91 1002.32 1002.99 1003.22 1003.91 1004.66 1004.98 1005.52 1005.85 1006.19 1006.69 1007.08 1007.53 1008.38 1009.11
1009.74 1009.44 1009.16 1008.58 1008.36 1007.80 1006.98 1006.31 1005.61 1004.96 1004.62 1004.26 1004.15 1004.12 1004.45 1004.50 1005.02 1004.82 1004.88 1005.06 1005.13 1004.53 1003.82 1002.71 1001.31 1001.13 1001.03 1001.02 1001.03 1000.90 1000.71 1000.73 1001.07 1001.00 1000.81 1001.35 1001.48 1001.85 1001.64 1002.38 1002.89 1003.02 1003.85 1004.99 1006.04 1005.61 1006.26 1006.48 1006.60 1006.93 1007.16 1007.64 1008.34 1009.14
1008.44 1008.38 1008.27 1008.13 1007.50 1006.75 1006.27 1005.63 1004.74 1004.47 1004.08 1003.50 1003.20 1003.29 1003.79 1004.33 1005.98 1006.21 1005.90 1005.53 1004.98 1004.61 1004.03 1003.42 1003.44 1003.62 1003.46 1003.03 1002.39 1002.42 1002.16 1003.03 1003.17 1002.66 1003.19 1001.42 1001.21 1001.01 1001.27 1001.81 1002.56 1002.92 1003.53 1004.57 1005.61 1006.59 1007.14 1007.03 1007.32 1007.24 1007.42 1007.85 1008.77 1009.32
1007.58 1007.46 1007.17 1006.62 1005.98 1005.40 1004.91 1004.85 1004.19 1003.85 1003.73 1003.29 1002.97 1002.85 1003.20 1004.66 1006.89 1007.81 1007.84 1007.51 1007.04 1006.72 1006.11 1005.99 1006.22 1006.43 1006.25 1005.93 1004.94 1004.34 1004.54 1004.99 1004.62 1004.30 1004.21 1003.40 1002.53 1002.41 1001.95 1001.95 1002.50 1003.38 1003.46 1004.07 1004.87 1005.80 1006.48 1006.76 1006.53 1007.10 1007.84 1008.75 1009.21 1009.48
1007.08 1006.43 1005.95 1005.52 1005.08 1004.83 1004.64 1004.64 1004.20 1003.96 1003.43 1002.76 1002.84 1003.04 1003.23 1003.83 1006.97 1008.94 1009.80 1009.42 1009.01 1008.69 1008.52 1008.27 1008.09 1008.10 1008.06 1007.33 1006.84 1006.63 1006.90 1006.66 1006.50 1005.76 1005.71 1004.97 1004.25 1003.43 1002.97 1003.11 1003.47 1004.77 1005.39 1004.39 1004.89 1005.60 1006.05 1006.75 1007.40 1008.02 1008.39 1008.98 1009.65 1010.17
1005.78 1005.45 1005.06 1004.87 1004.41 1003.95 1003.76 1004.27 1003.91 1003.61 1003.40 1003.31 1003.27 1003.77 1005.44 1006.73 1008.61 1010.26 1010.55 1010.60 1010.43 1010.08 1009.80 1009.50 1009.14 1008.79 1008.48 1008.25 1008.16 1007.90 1007.72 1007.64 1007.65 1007.36 1006.74 1006.45 1005.68 1005.11 1004.16 1004.20 1004.76 1005.21 1005.48 1005.52 1005.85 1006.35 1006.82 1007.43 1007.86 1008.39 1009.06 1009.79 1010.56 1011.22
Wind_Speed
16 17 18 20 20 19 18 21 22 21 21 20 20 20 19 17 15 9 9 10 5 4 16 19 14 16 15 4 4 6 9 5 5 7 4 4 4 7 7 6 7 6 8 4 4 3 2 21 15 12 4 8 13 13
17 17 17 17 19 21 19 18 21 20 20 19 20 19 19 17 15 11 7 5 2 3 15 23 23 21 16 6 1 1 4 7 4 3 4 4 3 4 8 4 8 3 4 4 6 4 5 11 12 10 9 10 14 15
20 18 17 17 18 18 19 19 18 20 20 21 19 20 19 18 16 10 10 8 2 4 12 10 9 9 7 6 8 2 2 2 4 4 4 3 4 2 4 3 3 7 9 4 3 8 6 10 13 15 13 13 12 14
18 18 18 18 17 18 19 19 19 20 21 22 21 20 19 18 16 12 8 8 3 3 5 7 2 2 8 8 10 8 3 5 4 5 4 5 3 7 1 4 5 2 5 9 2 7 4 8 9 13 12 11 11 12
17 17 18 18 17 18 19 20 20 20 21 23 22 21 20 20 17 12 10 9 7 5 5 12 20 15 8 9 10 9 8 4 3 4 3 4 4 6 4 2 4 6 8 5 4 10 8 7 9 7 9 9 9 10
15 16 17 18 18 18 18 18 20 20 21 24 25 23 22 19 14 7 4 7 10 6 4 6 7 6 6 5 8 12 9 5 4 3 3 5 6 5 4 1 5 12 10 10 11 13 13 10 1 8 10 11 7 8
17 16 16 18 18 17 18 18 20 21 22 22 25 22 21 18 7 6 4 1 5 4 2 6 5 4 7 6 4 6 9 6 6 3 4 3 4 0 4 6 12 12 14 11 9 11 12 12 11 13 10 12 8 6
16 16 17 17 17 17 19 19 20 22 22 24 24 21 20 13 5 7 4 6 5 3 3 4 7 5 3 3 4 4 5 4 6 5 4 4 5 3 3 7 6 7 12 11 15 13 11 12 12 12 6 8 9 8
17 18 17 18 18 19 19 18 20 21 23 27 25 26 5 5 2 2 2 1 4 3 3 5 4 4 4 3 3 4 4 4 3 4 1 2 3 4 4 7 7 10 8 12 15 12 9 9 12 11 9 11 12 7
17 17 18 18 18 18 17 18 19 22 26 29 11 5 4 3 9 7 3 4 3 4 5 9 11 7 3 2 2 3 2 4 2 3 5 2 2 3 3 6 1 5 5 11 10 12 12 10 10 12 12 12 11 12
18 18 18 19 19 18 17 18 17 19 19 5 4 4 7 5 4 5 4 5 6 6 7 8 12 5 4 1 1 4 4 4 3 3 5 4 3 5 4 5 6 6 1 2 1 7 10 11 9 8 8 10 11 12
17 18 19 19 19 19 18 17 16 8 4 8 8 7 4 3 5 4 5 5 7 6 5 7 5 7 4 4 1 3 3 4 3 7 0 4 5 7 4 5 7 6 6 10 8 1 4 11 11 10 12 13 14 15
18 19 19 19 20 20 19 12 11 13 15 2 3 3 4 5 6 7 7 6 4 3 4 2 4 3 5 4 2 3 3 5 7 3 1 3 7 6 5 2 6 9 10 10 10 9 6 8 7 8 9 11 11 11
19 21 20 20 20 18 2 7 13 10 6 4 5 5 7 7 7 7 8 8 2 2 5 2 1 6 1 3 2 3 5 1 3 3 1 4 6 6 5 6 6 8 9 11 11 14 9 11 10 9 10 9 9 11
20 23 22 17 9 7 11 14 15 5 5 5 5 6 8 9 10 8 8 8 4 2 4 4 2 3 3 3 4 2 3 3 4 3 0 3 5 6 5 4 7 7 7 8 9 10 12 13 10 12 10 9 13 14
21 23 3 3 9 14 16 16 11 6 5 6 9 9 10 10 9 9 10 8 5 4 3 3 3 2 7 3 5 5 2 4 3 2 5 4 1 4 3 1 3 6 6 7 8 8 11 10 11 9 8 9 12 14
21 6 7 14 19 20 15 5 5 7 6 6 7 9 12 12 12 12 8 7 5 6 6 3 3 5 3 3 4 3 5 4 5 7 3 2 2 1 4 2 2 3 4 5 7 7 9 11 10 10 10 10 8 11
11 11 19 20 16 13 3 5 6 6 11 10 10 11 12 13 12 9 9 7 7 7 8 8 6 5 3 3 3 5 6 7 9 7 5 5 3 2 4 5 0 3 3 3 4 6 9 10 10 6 9 13 10 11
13 15 21 21 13 6 4 5 5 6 8 10 11 11 11 11 11 11 8 7 8 6 5 5 6 7 9 10 9 7 3 7 5 4 8 6 5 4 5 2 2 2 4 4 3 3 8 8 7 5 6 5 8 8
22 21 20 18 10 3 5 6 6 6 7 7 10 11 10 10 10 9 7 8 7 7 8 11 12 10 9 8 4 5 6 10 9 5 6 6 4 7 8 4 2 5 4 5 3 1 5 5 6 5 5 6 6 9
17 2 9 8 4 6 5 5 6 7 8 11 10 11 9 10 10 10 9 8 9 9 10 10 12 10 12 9 8 6 6 7 6 5 7 4 5 3 3 8 6 4 4 2 4 4 6 6 5 3 6 7 8 8
12 6 7 5 5 6 7 7 7 7 9 11 12 13 12 11 12 11 11 11 11 9 11 11 11 9 11 13 10 9 9 11 9 4 12 8 9 9 9 4 3 5 3 2 5 6 3 5 4 3 8 7 8 7
13 6 4 6 7 5 8 8 9 8 8 6 8 12 12 11 11 11 11 11 10 10 9 10 11 13 10 11 8 8 8 10 8 6 9 7 8 5 7 8 11 8 4 2 3 4 6 4 2 4 7 8 6 5
6 3 6 6 9 6 6 8 4 6 8 10 13 18 16 12 11 12 10 10 9 8 9 3 4 5 10 10 8 9 9 7 8 7 7 5 6 5 5 3 4 6 4 4 6 5 3 4 2 4 6 7 5 5
4 6 7 7 7 6 7 13 16 15 20 17 19 14 10 10 11 13 13 10 9 7 2 1 3 5 7 7 7 5 8 6 6 7 9 6 8 7 5 2 7 5 5 2 4 6 4 3 3 4 9 6 5 6
8 7 8 7 8 11 12 18 17 17 14 17 17 13 11 13 17 11 8 7 9 1 4 2 3 4 3 6 5 6 5 4 3 4 4 5 10 6 8 10 10 4 4 3 5 7 7 6 3 5 10 10 4 4
7 9 8 11 13 12 9 9 12 10 15 14 11 11 7 5 8 2 8 9 10 11 3 1 2 2 3 4 6 6 4 4 5 4 7 10 4 8 4 8 8 10 7 6 5 3 4 7 6 3 4 7 5 5
10 9 17 14 13 10 15 15 16 19 7 7 7 7 9 9 7 4 4 4 8 11 12 7 4 5 5 4 6 8 7 7 5 3 4 5 4 7 9 9 9 9 8 6 5 7 4 3 5 5 4 5 7 6
11 12 14 18 17 15 14 15 15 12 12 12 12 9 6 3 4 6 3 4 2 6 6 10 9 8 7 7 7 9 8 6 6 9 12 8 7 8 6 11 8 9 9 9 11 9 7 4 5 6 5 6 6 6
17 13 14 16 19 18 14 14 14 12 12 12 11 7 6 1 6 8 8 8 7 8 10 10 11 11 11 11 11 11 9 11 7 6 11 10 5 4 9 11 9 8 10 10 9 7 4 5 5 6 5 6 5 3
11 11 15 15 16 14 14 14 14 12 12 12 12 11 10 5 5 8 11 9 8 8 9 9 8 8 9 9 9 8 8 9 12 14 15 10 7 7 5 7 6 3 7 10 11 10 9 8 7 8 8 6 5 5
9 10 11 15 14 12 11 10 10 11 12 10 11 10 10 8 6 4 6 9 8 8 8 8 7 5 5 6 9 7 7 7 10 12 14 10 10 7 3 7 8 5 10 3 8 5 5 10 8 8 5 8 7 7
8 10 11 9 7 9 8 5 4 8 9 9 11 5 6 5 6 5 6 7 5 6 5 4 4 5 8 9 8 5 6 7 8 9 12 14 16 16 11 9 7 4 1 4 6 5 9 9 8 10 10 9 9 8
Wind_Direction
294 296 301 306 309 310 309 314 318 320 321 324 324 324 321 319 316 313 287 289 247 255 291 282 316 301 304 324 295 328 315 355 334 344 342 2 308 347 339 337 348 339 318 346 280 198 356 334 347 46 326 337 15 35
292 294 295 300 307 310 306 304 311 316 317 316 319 319 317 315 314 308 278 284 199 231 276 289 280 276 276 285 203 20 294 307 316 321 344 324 312 313 330 6 349 29 21 320 359 3 329 318 344 0 344 40 9 6
293 299 299 298 300 303 304 302 304 308 313 318 316 314 311 310 308 294 281 288 252 267 282 262 237 224 211 206 172 192 228 287 268 322 303 284 273 270 330 21 277 352 350 12 318 15 346 337 339 348 10 21 359 353
292 298 298 298 298 300 302 300 302 304 310 315 316 314 314 311 309 299 272 259 201 288 281 301 140 178 185 154 161 206 262 233 260 278 269 268 265 202 113 297 18 24 352 343 329 358 122 339 339 330 337 17 360 358
298 300 299 301 301 298 300 299 301 303 305 313 316 315 316 311 305 284 253 246 211 249 303 306 301 261 177 185 180 190 216 247 270 278 244 272 290 353 126 89 35 343 4 357 322 308 293 320 333 330 324 355 353 348
303 303 302 305 303 299 299 299 299 302 303 310 314 314 314 310 309 262 263 184 213 186 293 293 340 209 202 210 191 200 218 219 238 280 288 263 326 325 53 196 354 349 344 353 323 320 303 304 6 313 316 313 349 313
303 304 305 307 306 305 301 301 301 302 302 304 308 309 310 305 263 259 19 211 112 132 252 272 264 195 204 198 208 229 200 222 242 269 250 297 330 336 31 358 339 343 339 328 331 341 326 347 330 309 307 310 303 301
308 309 310 309 310 312 310 308 305 303 303 301 299 308 312 307 233 262 185 231 252 223 224 273 278 273 151 271 277 180 234 199 232 239 278 351 341 32 56 3 4 325 325 334 333 325 309 297 295 285 295 314 322 330
307 307 308 313 315 311 306 310 307 307 304 295 300 300 272 235 192 91 131 246 242 271 264 235 249 251 200 151 291 263 220 243 246 242 226 101 350 43 300 338 328 342 359 311 324 318 334 321 320 3 358 344 328 335
311 308 310 311 313 306 312 312 312 311 302 299 283 205 172 19 125 149 157 185 196 212 233 257 267 253 244 199 296 267 249 255 257 237 146 167 107 196 193 200 285 92 243 7 348 348 347 356 356 341 341 327 332 331
313 311 309 313 318 316 314 314 314 318 297 314 328 355 353 173 245 209 227 208 182 216 218 231 248 259 167 98 271 285 290 273 253 242 199 157 116 70 32 77 58 106 164 93 86 327 358 3 349 352 355 355 347 343
318 316 311 311 314 316 317 319 312 288 347 322 302 296 286 278 241 223 228 212 207 233 175 236 135 234 106 88 245 270 274 285 279 320 133 136 132 106 54 50 49 61 44 77 73 55 313 37 6 360 24 15 3 348
319 316 317 312 306 306 309 307 322 301 292 215 206 234 226 198 233 221 219 235 207 212 218 165 203 170 172 125 199 266 276 263 333 281 261 105 125 124 133 31 52 46 25 31 84 71 51 67 52 39 18 15 360 353
318 313 314 315 308 310 310 308 317 317 278 242 221 234 226 211 226 211 243 249 285 251 315 281 207 186 96 172 159 254 227 248 276 253 171 132 173 98 347 36 44 38 33 18 27 62 26 36 45 36 49 43 24 9
317 312 310 300 294 297 308 306 298 285 276 262 233 240 234 238 271 265 238 264 276 209 273 296 309 298 191 203 207 244 265 239 223 250 97 171 93 125 99 68 351 34 22 25 10 39 37 49 27 35 43 40 39 25
320 307 129 7 352 333 320 307 275 217 252 249 229 260 273 276 266 249 236 237 241 255 195 253 262 170 218 210 187 216 276 230 249 231 263 168 123 84 104 15 66 27 19 24 1 42 48 30 36 36 36 44 44 36
308 227 356 3 350 323 300 270 252 212 245 250 241 243 263 278 292 294 276 282 229 230 219 205 196 231 176 221 195 172 206 226 224 236 228 118 147 227 154 321 66 101 13 28 355 20 62 36 44 32 6 10 22 48
287 314 341 336 335 302 262 214 276 231 224 238 252 260 262 268 274 278 276 271 273 248 253 213 235 237 226 211 221 214 216 229 241 290 199 145 213 201 239 201 96 105 51 357 356 339 70 49 47 30 29 19 5 30
310 305 303 298 298 297 274 218 224 260 255 264 258 264 269 273 276 273 259 260 264 262 266 262 240 242 246 242 252 285 171 250 220 210 272 220 179 231 242 161 206 52 288 260 289 22 95 86 73 43 51 21 8 32
295 284 277 273 264 241 257 250 225 257 271 286 301 284 281 282 279 277 246 256 241 232 235 240 253 260 274 291 268 266 308 184 200 201 236 137 158 230 213 187 242 237 247 275 136 332 127 67 39 77 65 62 31 22
287 291 287 221 227 247 273 269 249 254 268 264 271 284 293 301 294 283 259 223 229 221 242 246 254 253 269 278 279 303 263 239 297 238 249 177 71 48 49 261 190 228 240 352 315 64 80 90 34 103 68 48 54 31
282 276 289 277 253 225 246 236 252 299 297 283 285 280 278 278 280 279 281 267 247 226 234 242 249 254 256 258 259 242 244 261 218 164 120 168 190 193 197 117 42 276 238 337 306 101 83 55 23 16 75 85 60 55
270 226 227 245 237 248 259 234 246 231 249 270 285 273 261 250 261 254 246 250 259 269 254 251 243 245 261 284 278 276 271 246 252 210 209 214 209 174 151 174 185 215 148 54 10 43 81 41 340 328 71 70 53 40
159 225 240 228 207 257 246 250 226 254 269 256 262 268 268 287 291 281 272 254 262 262 268 242 356 255 246 244 251 254 249 241 238 239 195 186 233 163 104 101 9 271 198 140 110 102 89 122 317 75 63 46 52 31
258 229 231 237 226 232 255 256 251 248 260 271 275 273 275 284 282 273 271 271 262 273 21 52 237 268 271 272 265 271 250 221 213 225 230 196 144 140 212 43 299 158 124 175 135 121 120 86 71 74 92 61 17 64
233 241 213 224 222 232 252 266 271 273 268 263 261 264 259 269 271 257 253 274 350 100 142 201 293 274 311 353 350 302 311 306 335 233 191 187 173 176 191 175 206 144 120 162 140 156 168 137 113 110 127 131 135 64
231 248 252 253 267 285 279 282 290 294 307 301 289 273 277 231 251 266 20 31 348 333 321 73 332 312 20 10 347 327 310 308 213 205 228 237 151 171 230 202 178 139 160 130 119 113 116 138 162 147 115 110 90 81
226 248 258 263 267 270 266 264 275 286 267 257 306 281 346 16 7 322 333 18 353 328 335 268 232 17 355 3 326 314 314 303 227 200 89 66 136 165 197 97 85 95 119 96 96 134 137 127 119 127 130 109 111 101
236 244 258 267 273 276 278 272 269 269 269 269 267 247 273 281 274 1 46 95 205 274 334 324 6 359 342 329 319 302 312 321 329 291 193 160 149 210 175 131 146 142 129 99 57 59 49 69 108 121 117 113 116 106
258 252 252 256 262 264 266 271 271 261 262 265 276 279 241 120 31 20 8 360 355 348 351 357 3 5 355 343 335 351 345 38 359 8 298 236 181 235 178 155 160 172 148 149 141 119 79 141 121 145 157 117 105 103
272 275 267 259 257 261 256 258 264 262 275 285 286 273 258 121 90 44 26 5 4 14 12 16 14 10 354 356 348 3 12 26 19 15 6 343 8 349 74 102 102 35 175 168 158 163 167 209 181 106 109 118 113 113
260 268 267 268 266 267 276 271 268 269 278 242 240 262 269 252 90 65 20 10 19 18 11 2 9 4 351 359 2 36 45 26 17 25 12 2 3 309 287 106 91 70 322 154 133 151 134 100 109 124 113 103 110 98
270 270 267 271 274 273 247 215 260 252 257 265 268 338 59 50 70 32 29 22 8 2 349 340 340 7 19 21 15 8 33 39 32 22 31 24 31 12 27 63 98 133 129 97 113 127 118 136 130 128 123 118 109 106